EHI
0 0 0 0 0 0 0 0 0 0 0 0 3 7 12 17 24 29 26 20 15 10 9 8 6 4 2 1 0 0 1 1 1 0 0 0 0 0 0 0 0 0 0 0
0 0 0 0 0 0 0 0 0 0 0 1 4 9 14 18 25 29 27 20 13 9 9 8 6 4 2 1 0 0 0 0 0 0 0 0 0 0 0 0 0 0 0 0
0 0 0 0 0 0 0 0 0 0 1 3 7 12 15 18 24 28 25 17 10 7 7 6 4 2 1 1 0 0 0 0 0 0 0 0 0 0 0 0 0 0 0 0
0 0 0 0 0 0 0 0 0 0 2 5 10 12 14 15 18 22 20 12 6 4 3 2 1 0 0 0 0 0 0 0 0 0 0 0 0 0 0 0 0 0 0 0
0 0 0 0 0 0 0 0 0 1 4 9 13 13 11 10 12 15 13 8 4 1 0 0 0 0 0 0 0 0 0 0 0 0 0 0 0 0 0 0 0 0 0 0
0 0 0 0 0 0 0 0 1 2 7 13 14 11 8 7 9 9 7 4 2 0 0 0 0 0 0 0 0 0 0 0 0 0 0 0 0 0 0 0 0 0 0 0
0 0 0 0 0 0 0 0 1 3 8 11 10 7 7 9 9 8 5 3 0 0 0 0 0 0 0 0 0 0 0 0 0 0 0 0 0 0 0 0 0 0 0 0
0 0 0 0 0 0 0 0 1 3 7 8 7 7 9 11 10 9 7 3 0 0 0 0 0 0 0 0 0 0 0 0 0 0 0 0 0 0 0 0 0 0 0 0
0 0 0 0 0 0 0 0 1 3 5 8 9 10 12 12 11 8 6 3 1 0 0 0 0 0 0 0 0 0 0 0 0 0 0 0 0 0 0 0 0 0 0 0
0 0 0 0 0 0 1 2 3 4 7 9 11 12 11 10 9 7 5 3 2 1 0 0 0 0 0 0 0 0 0 0 0 0 0 0 0 0 0 0 0 0 0 0
0 0 0 0 0 1 4 6 7 7 8 10 11 11 9 7 6 5 4 3 2 1 0 0 0 0 0 0 0 0 0 0 0 0 0 0 0 0 0 0 0 0 0 0
0 0 0 0 0 1 4 6 7 8 8 9 10 9 6 4 3 3 2 1 1 0 0 0 0 0 0 0 0 0 0 0 0 0 0 0 0 0 0 0 0 0 0 0
0 0 0 0 0 0 1 3 5 6 7 8 8 6 4 1 1 1 0 0 0 0 0 0 0 0 0 0 0 0 0 0 0 0 0 0 0 0 0 0 0 0 0 0
0 0 0 0 1 0 0 2 4 6 6 5 4 2 1 0 0 0 0 0 0 0 0 0 0 0 0 0 0 0 0 0 0 0 0 0 0 0 0 0 0 0 0 0
0 0 0 0 0 0 0 2 3 4 4 2 1 0 0 0 0 0 0 0 0 0 0 0 0 0 0 0 0 0 0 0 0 0 0 0 0 0 0 0 0 0 0 0
0 0 0 0 0 0 0 1 1 1 1 0 0 0 0 0 0 0 0 0 0 0 0 0 0 0 0 0 0 0 0 0 0 0 0 0 0 0 0 0 0 0 0 0
0 0 0 0 0 0 0 0 0 0 0 0 0 0 0 0 0 0 0 0 0 0 0 0 0 0 0 0 0 0 0 0 0 0 0 0 0 0 0 0 0 0 0 0
0 0 0 0 1 0 0 0 0 0 0 0 0 0 0 0 0 0 0 0 0 0 0 0 0 0 0 0 0 0 0 0 0 0 0 0 0 0 0 0 0 0 0 0
0 0 0 0 0 0 0 0 0 0 0 0 0 0 0 0 0 0 0 0 0 0 0 0 0 0 0 0 0 0 0 0 0 0 0 0 0 0 0 0 0 0 0 0
0 0 0 0 0 0 0 0 0 0 0 0 0 0 0 0 0 0 0 0 0 0 0 0 0 0 0 0 0 0 0 0 0 0 0 0 0 0 0 0 0 0 0 0
0 0 0 0 0 0 0 0 0 0 0 0 0 0 0 0 0 0 0 0 0 0 0 0 0 0 0 0 0 0 0 0 0 0 0 0 0 0 0 0 0 0 0 0
0 0 0 0 0 0 0 0 0 0 0 0 0 0 0 0 0 0 0 0 0 0 0 0 0 0 0 0 0 0 0 0 0 0 0 0 0 0 0 0 0 0 0 0
0 0 0 0 0 0 0 0 0 0 0 0 0 0 0 0 0 0 0 0 0 0 0 0 0 0 0 0 0 0 0 0 0 0 0 0 0 0 0 0 0 0 0 0
0 0 0 0 0 0 0 0 0 0 0 0 0 0 0 0 0 0 0 0 0 0 0 0 0 0 0 0 0 0 0 0 0 0 0 0 0 0 0 0 0 0 0 0
0 0 0 0 0 0 0 0 0 0 0 0 0 0 0 0 0 0 0 0 0 0 0 0 0 0 0 0 0 0 0 0 0 0 0 0 0 0 0 0 0 0 0 0
0 0 0 0 0 0 0 0 0 0 0 0 0 0 0 0 0 0 0 0 0 0 0 0 0 0 0 0 0 0 0 0 0 0 0 0 0 0 0 0 0 0 0 0
0 0 0 0 0 0 0 0 0 0 0 0 0 0 0 0 0 0 0 0 0 0 0 0 0 0 0 0 0 0 0 0 0 0 0 0 0 0 0 0 0 0 0 0
Wind_Speed
5 4 4 4 6 8 7 9 10 9 9 11 10 9 8 7 8 8 7 6 6 6 5 5 5 4 4 4 3 4 4 3 2 2 2 2 2 2 2 2 3 3 3 2
2 3 4 3 4 7 6 5 6 4 8 8 3 4 6 8 10 9 8 8 7 6 6 6 6 5 4 4 4 4 4 3 3 3 3 3 3 3 3 3 3 3 2 2
2 1 3 4 6 6 5 5 7 8 9 4 4 8 10 10 11 10 10 9 8 7 7 6 6 5 5 4 4 5 4 4 3 3 4 3 3 4 3 3 3 3 3 3
2 3 5 9 3 4 5 4 6 6 4 6 7 6 4 6 9 9 10 9 8 7 7 5 5 5 5 5 5 5 4 4 3 4 4 4 4 4 3 3 3 3 3 3
4 3 4 5 1 2 3 4 4 5 4 4 6 5 1 2 6 9 9 8 8 7 7 6 6 6 6 6 5 5 4 4 3 4 4 4 4 3 3 4 4 4 4 4
4 4 6 6 3 2 2 3 2 4 6 7 8 5 5 4 6 6 6 6 7 7 7 7 6 6 7 6 5 4 4 3 3 4 4 4 3 3 3 4 4 4 5 5
4 3 6 5 6 1 4 7 3 4 6 8 6 5 4 7 7 7 7 7 7 8 7 6 6 7 7 5 4 4 4 4 4 4 4 4 4 4 4 4 5 5 6 5
4 4 7 4 3 2 5 3 2 3 5 6 5 6 7 8 8 9 8 8 7 7 5 4 5 7 6 5 4 5 5 5 5 4 4 4 4 4 4 5 6 5 5 5
5 6 4 3 4 5 3 2 2 3 5 8 8 7 8 8 8 8 8 8 7 7 6 4 3 5 6 5 5 5 6 5 5 5 4 4 4 4 4 4 4 4 4 4
2 4 4 4 3 3 1 1 2 4 6 8 9 9 9 8 7 7 7 7 7 8 7 5 4 4 4 5 5 6 6 5 4 5 4 4 3 3 3 3 4 4 4 4
2 4 4 4 4 4 4 4 6 6 5 7 11 10 9 9 8 6 6 5 6 7 6 5 4 5 4 4 5 6 6 5 5 4 5 5 4 4 3 2 2 4 4 4
4 4 3 4 4 3 3 3 5 7 7 6 7 9 9 8 7 7 6 6 6 6 6 5 5 5 4 3 5 6 6 5 4 4 4 4 5 6 10 8 9 7 6 5
4 2 3 3 3 2 2 3 5 7 7 8 7 8 9 7 6 6 6 6 6 6 5 5 5 5 4 3 4 5 5 5 4 4 4 4 5 6 5 7 11 11 9 8
3 1 1 2 1 2 4 5 7 9 7 7 7 8 8 7 6 7 6 6 5 5 6 6 6 5 4 4 5 5 5 5 5 4 4 4 5 5 5 6 5 5 7 9
2 2 3 1 2 4 5 6 8 8 7 7 6 7 7 7 7 6 5 6 6 6 5 5 5 5 4 5 5 5 5 4 4 4 4 4 5 5 5 6 6 5 5 6
1 0 2 3 4 5 5 6 7 6 6 6 6 6 7 7 7 6 5 5 6 5 4 5 4 4 4 5 6 5 4 8 7 5 5 5 5 5 5 6 6 5 5 4
3 2 3 3 4 5 4 4 5 6 5 6 6 7 7 7 7 6 5 5 5 5 4 4 4 4 4 5 5 5 5 6 8 6 4 4 5 5 5 5 5 5 4 4
4 4 4 5 5 5 5 5 5 6 6 6 7 7 7 7 6 5 5 6 6 6 5 4 4 5 5 5 5 4 5 5 4 5 5 5 5 5 5 5 5 5 4 4
1 2 3 3 4 5 5 5 4 5 6 7 7 7 6 6 5 5 6 6 6 5 3 4 6 6 5 6 6 4 5 6 5 5 5 6 5 5 4 4 4 4 4 4
2 3 3 3 4 4 5 5 6 6 6 7 8 7 6 6 5 6 6 5 3 2 3 4 5 5 5 6 7 4 5 6 6 5 5 5 5 4 4 4 4 4 4 4
3 4 5 5 4 5 5 6 6 6 6 7 8 7 7 6 5 5 5 4 3 4 5 6 4 4 4 5 6 4 5 5 5 5 5 4 4 4 4 4 4 4 4 4
3 4 5 5 6 5 5 5 6 7 7 7 7 7 7 7 6 5 4 3 3 4 4 3 3 5 6 6 4 4 5 5 4 4 4 4 4 4 4 4 4 4 4 4
3 4 5 5 6 6 6 6 6 6 6 7 7 7 7 5 4 5 4 2 3 4 4 3 4 6 7 5 4 4 4 4 4 4 3 4 4 4 4 4 4 3 4 4
4 5 6 6 7 8 7 6 6 6 6 6 5 6 6 5 3 3 3 5 5 5 3 4 6 6 5 3 3 3 3 3 3 3 4 4 4 4 4 4 4 4 4 5
5 6 7 7 7 6 6 7 7 7 7 5 6 5 4 3 4 3 4 5 6 5 3 4 6 5 4 3 3 3 3 3 3 4 4 4 4 4 4 4 4 4 5 5
6 6 5 5 5 5 4 5 5 4 4 5 4 4 4 4 4 4 4 4 5 4 3 2 2 3 2 2 3 3 3 3 3 3 4 4 4 4 4 4 6 5 5 5
6 5 5 5 5 5 4 4 5 4 4 4 4 4 4 4 4 4 4 3 3 2 2 1 1 2 2 2 3 3 3 3 3 3 3 3 4 4 4 5 4 4 4 5
Wind_Direction
216 208 179 186 176 168 174 178 180 218 219 237 223 205 191 171 156 152 154 154 154 153 150 141 132 130 128 123 118 118 114 112 117 113 109 114 123 130 130 137 145 144 151 163
236 208 200 208 200 183 194 182 199 210 243 245 211 158 167 168 164 167 168 166 162 154 149 144 141 139 133 120 112 109 109 104 97 98 94 93 94 98 105 111 112 114 123 133
229 278 121 233 212 185 190 192 177 203 228 183 170 185 186 180 176 176 174 170 169 164 159 153 151 146 141 129 117 113 111 105 99 101 100 91 91 91 95 97 100 101 101 101
133 112 198 240 245 185 179 210 207 216 215 188 193 180 163 166 173 172 172 169 168 162 155 149 141 132 129 122 120 118 112 108 103 102 101 96 94 91 87 90 92 93 93 100
123 163 254 294 278 154 169 248 216 196 180 148 123 91 65 182 168 170 171 166 160 156 145 140 139 135 128 126 123 119 118 116 116 115 108 101 97 91 89 94 88 82 83 90
127 149 213 239 291 304 125 267 242 177 170 155 136 147 222 178 147 139 138 140 140 133 127 135 139 133 129 133 132 135 135 127 118 118 116 110 102 93 91 98 97 92 81 80
150 188 251 264 301 3 162 235 230 179 174 166 173 182 154 130 127 125 123 125 128 128 132 140 139 136 136 136 141 143 130 119 113 114 116 114 108 100 101 105 102 96 90 78
144 173 244 313 358 176 228 267 201 169 164 151 132 110 113 120 122 122 118 119 122 120 115 116 133 139 138 140 138 131 126 120 115 113 115 114 114 109 107 113 109 105 99 86
189 211 250 285 259 273 255 233 218 157 148 137 127 118 115 117 117 118 121 121 117 120 116 106 114 134 138 135 128 127 125 122 116 108 102 105 115 117 110 110 113 113 111 105
268 281 300 309 311 326 335 185 127 128 136 134 126 124 119 119 117 117 118 119 119 120 121 116 108 109 120 125 126 125 124 120 116 112 104 96 97 105 114 121 126 125 124 121
281 293 328 337 346 351 23 62 90 97 105 124 124 124 124 124 120 117 112 112 120 124 124 120 113 104 103 117 126 125 121 118 114 111 112 100 86 73 92 84 126 140 142 143
227 238 220 271 305 344 63 84 100 101 95 98 116 121 118 118 118 119 118 115 114 114 117 115 112 105 101 110 125 127 125 123 118 114 112 114 111 86 61 72 78 85 100 121
229 238 224 259 306 5 69 86 92 95 106 105 100 107 107 107 112 113 112 108 111 115 115 113 111 105 101 104 113 120 126 126 120 120 121 120 122 121 108 74 66 71 82 97
235 222 257 246 208 79 86 89 90 87 85 94 101 104 106 106 107 109 107 105 103 104 108 110 109 105 105 107 109 112 115 118 119 120 122 121 119 119 120 120 106 78 65 83
263 219 217 188 109 96 96 102 102 98 96 92 97 102 108 113 111 107 104 105 104 103 107 112 110 106 106 110 111 114 115 115 111 109 110 113 115 116 114 112 111 107 97 81
277 123 132 130 127 109 102 108 113 116 115 109 104 105 106 107 107 105 100 106 115 116 114 112 111 116 117 115 113 109 110 117 114 114 114 115 117 119 118 118 117 116 117 119
172 185 173 162 152 137 134 134 138 135 130 124 119 114 110 107 103 99 92 89 98 100 98 104 110 114 115 116 114 114 113 120 118 114 114 118 120 122 122 121 122 121 118 119
212 206 187 173 168 152 145 141 138 133 129 123 118 117 118 122 123 119 112 104 98 88 81 93 107 111 108 106 106 111 113 114 117 117 116 116 117 118 120 121 125 124 115 111
208 175 172 165 163 153 147 139 130 124 121 124 122 120 116 117 121 122 119 113 109 102 91 102 113 111 109 111 109 107 113 115 112 110 113 116 114 113 118 122 125 126 127 130
83 94 116 126 128 134 134 130 125 123 126 128 124 120 117 117 121 122 114 102 92 108 120 114 111 107 109 117 115 113 118 121 120 119 119 123 124 124 126 129 131 134 138 142
85 92 100 110 110 108 121 131 132 129 128 130 132 132 128 122 122 122 118 106 82 98 110 111 108 112 114 120 117 117 120 123 124 127 131 133 133 134 135 137 142 147 150 151
77 91 99 106 111 105 103 109 118 122 124 125 124 124 124 123 122 110 96 111 122 118 113 112 112 118 124 121 117 121 123 126 127 131 136 142 146 149 151 154 157 159 160 162
84 99 105 109 112 109 102 104 111 117 121 123 127 130 129 128 131 130 123 117 123 122 115 115 122 126 129 124 125 129 135 139 144 150 155 157 160 162 164 167 168 168 170 175
88 94 100 103 103 103 101 99 99 100 102 101 105 115 121 118 101 90 111 127 131 129 122 131 132 136 135 134 137 143 152 157 161 164 166 167 169 171 174 175 177 181 184 189
89 92 95 97 98 98 100 99 94 91 91 90 90 92 95 105 117 121 121 130 135 133 131 141 141 142 140 139 146 155 163 170 173 173 175 176 179 182 186 187 190 192 194 199
81 83 83 84 91 97 100 101 100 99 102 99 90 87 92 94 105 112 117 124 129 129 129 135 147 147 145 150 159 165 168 170 173 178 182 183 185 186 191 197 202 202 202 204
78 79 80 78 73 79 87 92 98 97 101 108 102 94 100 103 105 111 116 118 122 125 124 127 141 155 165 169 169 170 171 174 178 182 187 190 191 196 201 204 207 208 206 207